TimeMST,TemperatureF,Dew PointF,Humidity,Sea Level PressureIn,VisibilityMPH,Wind Direction,Wind SpeedMPH,Gust SpeedMPH,PrecipitationIn,Events,Conditions,WindDirDegrees,DateUTC
12:53 AM,27.0,19.0,72,30.39,10.0,West,8.1,-,N/A,,Clear,280,2013-01-17 07:53:00
1:53 AM,25.0,18.0,75,30.41,10.0,West,9.2,-,N/A,,Clear,280,2013-01-17 08:53:00
2:53 AM,25.0,17.1,72,30.43,10.0,West,12.7,-,N/A,,Clear,270,2013-01-17 09:53:00
3:53 AM,24.1,17.1,75,30.44,10.0,West,10.4,-,N/A,,Clear,280,2013-01-17 10:53:00
4:53 AM,24.1,16.0,71,30.47,10.0,West,11.5,-,N/A,,Clear,270,2013-01-17 11:53:00
5:53 AM,25.0,16.0,69,30.50,10.0,West,11.5,-,N/A,,Clear,280,2013-01-17 12:53:00
6:53 AM,23.0,15.1,72,30.53,10.0,West,8.1,-,N/A,,Clear,280,2013-01-17 13:53:00
7:53 AM,27.0,17.1,66,30.54,10.0,West,6.9,-,N/A,,Clear,280,2013-01-17 14:53:00
8:53 AM,36.0,21.0,55,30.55,10.0,WNW,5.8,-,N/A,,Clear,300,2013-01-17 15:53:00
9:53 AM,43.0,21.0,42,30.55,10.0,NNW,4.6,-,N/A,,Clear,330,2013-01-17 16:53:00
10:53 AM,46.0,17.1,31,30.51,10.0,North,4.6,-,N/A,,Clear,350,2013-01-17 17:53:00
11:53 AM,48.9,16.0,27,30.47,10.0,Calm,Calm,-,N/A,,Clear,0,2013-01-17 18:53:00
12:53 PM,51.1,15.1,24,30.42,10.0,SW,5.8,-,N/A,,Clear,230,2013-01-17 19:53:00
1:53 PM,53.1,14.0,21,30.39,10.0,West,8.1,-,N/A,,Clear,260,2013-01-17 20:53:00
2:53 PM,52.0,12.9,21,30.39,10.0,SW,6.9,-,N/A,,Clear,230,2013-01-17 21:53:00
3:53 PM,51.1,14.0,23,30.38,10.0,South,6.9,-,N/A,,Clear,190,2013-01-17 22:53:00
4:53 PM,39.9,14.0,35,30.41,10.0,South,8.1,-,N/A,,Clear,190,2013-01-17 23:53:00
5:53 PM,39.9,16.0,38,30.41,10.0,SSW,9.2,-,N/A,,Clear,200,2013-01-18 00:53:00
6:53 PM,42.1,16.0,35,30.40,10.0,SSW,15.0,-,N/A,,Clear,210,2013-01-18 01:53:00
7:53 PM,41.0,17.1,38,30.37,10.0,SSW,13.8,-,N/A,,Clear,210,2013-01-18 02:53:00
8:53 PM,37.9,18.0,45,30.32,10.0,SSW,17.3,-,N/A,,Clear,200,2013-01-18 03:53:00
9:53 PM,35.1,19.0,52,30.28,10.0,SSW,15.0,-,N/A,,Clear,200,2013-01-18 04:53:00
10:53 PM,37.0,19.9,50,30.24,10.0,SSW,18.4,28.8,N/A,,Clear,210,2013-01-18 05:53:00
11:53 PM,34.0,19.9,56,30.22,10.0,SW,16.1,-,N/A,,Clear,230,2013-01-18 06:53:00